Date String (YYYY-MM-DD hh:mm:ss) UTC,Instrument flags,absolute air pressure of the measurement (hPa),sample flow rate (lpm),inlet stack bypass flow (lpm),air temperature of the measurement (°C),ambient temperature measured by the external sensor (°C),aerosol sample conditioner tube jacket temperature (°C),OPC LED temperature (°C),internal box temperature (°C),relative humidity of the measurement (%),span deviation,mass concentration of particles derived from Lorenz-Mie calculation of OPC scattering (μg/m³),mass concentration of particles derived from Lorenz-Mie calculation of OPC scattering (μg/m³),mass concentration of particles derived from Lorenz-Mie calculation of OPC scattering (μg/m³)
DateTimeUTC,F1_M11,P_M11,Q1_M11,Q2_M11,T1_M11,T2_M11,T3_M11,T4_M11,T5_M11,U1_M11,ZSPAN_M11,X2_M11,X0_M11,X1_M11
2024-01-29 07:00:00,SystemResetWarning,0837.0,5.01,000.00,024.6,023.5,000.0,032.9,026.0,12.9,0000.0,0000.82,0001.86,0000.66
2024-01-29 07:01:00,SystemResetWarning,0837.0,5.00,000.00,024.6,023.5,000.0,032.9,026.0,12.9,0000.0,0000.84,0001.31,0000.65
2024-01-29 07:02:00,SystemResetWarning,0837.0,5.00,000.00,024.6,023.5,000.0,032.9,026.0,12.9,0000.0,0000.86,0001.43,0000.65
2024-01-29 07:03:00,SystemResetWarning,0837.0,5.00,000.00,024.6,023.5,000.0,032.9,026.0,12.9,0000.0,0000.88,0001.57,0000.66
2024-01-29 07:04:00,SystemResetWarning,0837.1,5.00,000.00,024.6,023.5,000.0,032.9,026.0,12.9,0000.0,0000.88,0001.54,0000.66
2024-01-29 07:05:00,SystemResetWarning,0837.0,5.00,000.00,024.6,023.5,000.0,032.9,026.0,12.9,0000.0,0000.91,0001.63,0000.67
2024-01-29 07:06:00,SystemResetWarning,0837.1,4.99,000.00,024.6,023.5,000.0,032.9,026.0,13.0,0000.0,0000.96,0001.73,0000.67
2024-01-29 07:07:00,SystemResetWarning,0837.1,4.99,000.00,024.6,023.4,000.0,032.9,026.0,13.0,0000.0,0000.98,0001.75,0000.69
2024-01-29 07:08:00,SystemResetWarning,0837.2,5.00,000.00,024.6,023.5,000.0,032.9,026.0,13.0,0000.0,0000.96,0001.69,0000.69
2024-01-29 07:09:00,SystemResetWarning,0837.1,5.01,000.00,024.6,023.5,000.0,032.9,026.0,13.0,0000.0,0000.97,0001.67,0000.69
2024-01-29 07:10:00,SystemResetWarning,0837.1,5.01,000.00,024.6,023.5,000.0,032.9,026.0,13.0,0000.0,0001.00,0002.62,0000.69
2024-01-29 07:11:00,SystemResetWarning,0837.1,5.00,000.00,024.6,023.5,000.0,032.9,026.0,13.0,0000.0,0001.01,0002.76,0000.68
2024-01-29 07:12:00,SystemResetWarning,0837.1,4.99,000.00,024.6,023.6,000.0,032.9,026.0,13.1,0000.0,0000.98,0002.66,0000.69
2024-01-29 07:13:00,SystemResetWarning,0837.1,4.99,000.00,024.6,023.6,000.0,032.9,026.0,13.1,0000.0,0000.98,0002.60,0000.72
2024-01-29 07:14:00,SystemResetWarning,0837.1,5.00,000.00,024.6,023.6,000.0,032.9,026.0,13.0,0000.0,0000.97,0002.41,0000.72
2024-01-29 07:15:00,SystemResetWarning,0837.1,5.01,000.00,024.6,023.6,000.0,032.9,026.0,13.0,0000.0,0000.97,0002.43,0000.72
2024-01-29 07:16:00,SystemResetWarning,0837.2,5.00,000.00,024.6,023.6,000.0,032.9,026.0,12.9,0000.0,0000.95,0002.39,0000.71
2024-01-29 07:17:00,SystemResetWarning,0837.2,5.00,000.00,024.6,023.5,000.0,032.9,026.0,13.0,0000.0,0000.88,0002.24,0000.71
2024-01-29 07:18:00,SystemResetWarning,0837.2,5.00,000.00,024.6,023.5,000.0,032.9,026.0,13.0,0000.0,0000.87,0002.23,0000.71
2024-01-29 07:19:00,SystemResetWarning,0837.2,5.00,000.00,024.6,023.5,000.0,032.9,026.0,13.0,0000.0,0000.89,0002.92,0000.70
2024-01-29 07:20:00,SystemResetWarning,0837.2,5.00,000.00,024.6,023.5,000.0,032.9,026.0,13.0,0000.0,0000.91,0003.12,0000.70
2024-01-29 07:21:00,SystemResetWarning,0837.2,5.00,000.00,024.6,023.5,000.0,032.9,026.0,13.0,0000.0,0000.90,0002.62,0000.71
2024-01-29 07:22:00,SystemResetWarning,0837.2,5.00,000.00,024.6,023.5,000.0,032.9,026.0,13.0,0000.0,0000.88,0002.10,0000.71
2024-01-29 07:23:00,SystemResetWarning,0837.2,5.00,000.00,024.6,023.5,000.0,032.9,026.0,13.0,0000.0,0000.92,0002.14,0000.71
2024-01-29 07:24:00,SystemResetWarning,0837.2,5.00,000.00,024.5,023.4,000.0,032.9,025.9,13.0,0000.0,0000.95,0002.27,0000.69
2024-01-29 07:25:00,SystemResetWarning,0837.1,5.00,000.00,024.5,023.4,000.0,032.9,026.0,12.9,0000.0,0000.92,0002.24,0000.66
2024-01-29 07:26:00,SystemResetWarning,0837.1,5.00,000.00,024.5,023.4,000.0,032.9,025.9,12.9,0000.0,0000.91,0002.21,0000.66
2024-01-29 07:27:00,SystemResetWarning,0837.1,5.00,000.00,024.5,023.4,000.0,032.9,025.9,12.9,0000.0,0000.92,0002.22,0000.66
2024-01-29 07:28:00,SystemResetWarning,0837.0,5.00,000.00,024.5,023.4,000.0,032.9,025.9,12.9,0000.0,0000.95,0002.28,0000.66
2024-01-29 07:29:00,SystemResetWarning,0837.0,5.00,000.00,024.5,023.4,000.0,032.9,026.0,12.9,0000.0,0000.96,0002.33,0000.66
2024-01-29 07:30:00,SystemResetWarning,0837.0,5.00,000.00,024.5,023.4,000.0,032.9,025.9,12.9,0000.0,0000.96,0001.78,0000.67
2024-01-29 07:31:00,SystemResetWarning,0837.0,5.00,000.00,024.5,023.4,000.0,032.9,025.9,12.9,0000.0,0000.94,0001.81,0000.67
2024-01-29 07:32:00,SystemResetWarning,0837.0,5.00,000.00,024.5,023.4,000.0,032.8,025.9,12.9,0000.0,0000.97,0002.84,0000.67
2024-01-29 07:33:00,SystemResetWarning,0837.0,4.99,000.00,024.5,023.4,000.0,032.8,025.9,12.9,0000.0,0000.98,0002.88,0000.67
2024-01-29 07:34:00,SystemResetWarning,0837.0,5.00,000.00,024.5,023.4,000.0,032.8,025.9,12.9,0000.0,0000.98,0002.91,0000.66
2024-01-29 07:35:00,SystemResetWarning,0837.1,4.99,000.00,024.5,023.4,000.0,032.8,025.9,12.8,0000.0,0000.94,0002.80,0000.67
2024-01-29 07:36:00,SystemResetWarning,0837.1,5.00,000.00,024.5,023.4,000.0,032.8,025.9,12.8,0000.0,0000.93,0003.36,0000.66
2024-01-29 07:37:00,SystemResetWarning,0837.1,5.00,000.00,024.5,023.4,000.0,032.8,025.9,12.8,0000.0,0000.93,0003.62,0000.66
2024-01-29 07:38:00,SystemResetWarning,0837.0,5.00,000.00,024.5,023.4,000.0,032.8,025.9,12.8,0000.0,0000.96,0003.69,0000.67
2024-01-29 07:39:00,SystemResetWarning,0837.0,5.00,000.00,024.5,023.4,000.0,032.8,025.9,12.8,0000.0,0000.95,0003.69,0000.67
2024-01-29 07:40:00,SystemResetWarning,0837.0,5.00,000.00,024.5,023.4,000.0,032.8,025.9,12.8,0000.0,0000.97,0003.77,0000.69
2024-01-29 07:41:00,SystemResetWarning,0837.0,5.00,000.00,024.5,023.4,000.0,032.8,025.8,12.8,0000.0,0000.97,0003.74,0000.70
2024-01-29 07:42:00,SystemResetWarning,0837.0,5.00,000.00,024.5,023.3,000.0,032.8,025.9,12.8,0000.0,0001.00,0003.77,0000.72
2024-01-29 07:43:00,SystemResetWarning,0837.1,5.00,000.00,024.4,023.3,000.0,032.8,025.8,12.8,0000.0,0000.98,0002.61,0000.73
2024-01-29 07:44:00,SystemResetWarning,0837.1,5.00,000.00,024.4,023.3,000.0,032.8,025.8,12.8,0000.0,0000.96,0002.36,0000.75
2024-01-29 07:45:00,SystemResetWarning,0837.1,5.00,000.00,024.4,023.3,000.0,032.8,025.8,12.9,0000.0,0000.98,0002.68,0000.75
2024-01-29 07:46:00,SystemResetWarning,0837.1,5.00,000.00,024.4,023.3,000.0,032.8,025.8,12.9,0000.0,0001.00,0002.71,0000.76
2024-01-29 07:47:00,SystemResetWarning,0837.1,5.00,000.00,024.4,023.3,000.0,032.8,025.7,12.9,0000.0,0001.01,0002.33,0000.78
2024-01-29 07:48:00,SystemResetWarning,0837.1,5.00,000.00,024.4,023.3,000.0,032.8,025.7,12.9,0000.0,0001.10,0002.08,0000.80
2024-01-29 07:49:00,SystemResetWarning,0837.1,5.00,000.00,024.4,023.2,000.0,032.7,025.7,12.9,0000.0,0001.08,0002.01,0000.80
2024-01-29 07:50:00,SystemResetWarning,0837.1,5.00,000.00,024.4,023.2,000.0,032.7,025.7,12.9,0000.0,0001.08,0002.00,0000.79
2024-01-29 07:51:00,SystemResetWarning,0837.1,5.00,000.00,024.4,023.2,000.0,032.7,025.7,12.9,0000.0,0001.08,0001.92,0000.79
2024-01-29 07:52:00,SystemResetWarning,0837.1,5.00,000.00,024.4,023.2,000.0,032.7,025.7,12.9,0000.0,0001.09,0001.95,0000.79
2024-01-29 07:53:00,SystemResetWarning,0837.1,5.00,000.00,024.4,023.2,000.0,032.7,025.7,12.9,0000.0,0001.10,0001.96,0000.80
2024-01-29 07:54:00,SystemResetWarning,0837.2,5.00,000.00,024.4,023.2,000.0,032.7,025.7,12.9,0000.0,0001.14,0002.00,0000.83
2024-01-29 07:55:00,SystemResetWarning,0837.2,5.00,000.00,024.4,023.2,000.0,032.7,025.7,13.0,0000.0,0001.17,0002.03,0000.86
2024-01-29 07:56:00,SystemResetWarning,0837.2,5.00,000.00,024.4,023.2,000.0,032.7,025.7,12.9,0000.0,0001.15,0001.67,0000.89
2024-01-29 07:57:00,SystemResetWarning,0837.2,5.00,000.00,024.4,023.2,000.0,032.7,025.7,12.9,0000.0,0001.17,0001.64,0000.92
2024-01-29 07:58:00,SystemResetWarning,0837.2,5.00,000.00,024.3,023.1,000.0,032.7,025.7,12.9,0000.0,0001.23,0001.76,0000.95
2024-01-29 07:59:00,SystemResetWarning,0837.1,5.00,000.00,024.3,023.1,000.0,032.7,025.7,12.9,0000.0,0001.20,0001.69,0000.97
